Weather History for Belmar-Farmingdale, NJ

Change the Weather History Date:

Wednesday, November 17, 2010

  Actual Average Record
Temperature  
Mean Temperature 56 °F -  
Max Temperature 60 °F 51 °F 64 °F (2006)
Min Temperature 51 °F 36 °F 26 °F (1996)
Degree Days  
Heating Degree Days 10    
Growing Degree Days 6 (Base 50)    
Moisture  
Dew Point 42 °F    
Average Humidity 58    
Maximum Humidity 82    
Minimum Humidity 39    
Precipitation  
Precipitation 0.27 in - - ()
Sea Level Pressure  
Sea Level Pressure 29.68 in    
Wind  
Wind Speed 16 mph (WSW)    
Max Wind Speed 28 mph    
Max Gust Speed 40 mph    
Visibility 9 miles    
Events      
Averages and records for this station are not official NWS values.
T = Trace of Precipitation, MM = Missing Value Source: NWS Daily Summary

Daily Weather History Graph

Daily Weather History Graph

Search for Another Location

Airport:

Trip Planner

Search our weather history database for the weather conditions in past years. The results will help you decide how hot, cold, wet, or windy it might be!

Date:

Astronomy

Nov. 17, 2010 Rise Set
Actual Time 6:44 AM EST 4:38 PM EST
Civil Twilight 6:15 AM EST 5:07 PM EST
Nautical Twilight 5:42 AM EST 5:40 PM EST
Astronomical Twilight 5:09 AM EST 6:12 PM EST
Moon 2:09 PM EST (11/17) 2:40 AM EST (11/17)
Length of Visible Light 10h 52m
Length of Day
9h 53m
Waxing Gibbous, 85% of the Moon is Illuminated
Nov 17
Waxing Gibbous
Nov 21
Full
Nov 28
Last Quarter
Dec 5
New
Dec 13
First Quarter

Hourly Weather History & Observations

Time (EST) Temp. Dew Point Humidity Pressure Visibility Wind Dir Wind Speed Gust Speed Precip Events Conditions
12:15 AM 59.0 °F 51.8 °F 77% 29.71 in 5.0 mi SSE 15.0 mph 21.9 mph 0.14 in   Overcast
12:35 AM 59.0 °F 51.8 °F 77% 29.68 in 10.0 mi SSE 15.0 mph 23.0 mph 0.14 in   Overcast
12:55 AM 59.0 °F 51.8 °F 77% 29.66 in 9.0 mi South 13.8 mph 26.5 mph 0.15 in   Overcast
1:15 AM 59.0 °F 51.8 °F 77% 29.65 in 9.0 mi South 16.1 mph 25.3 mph N/A   Overcast
1:35 AM 59.0 °F 51.8 °F 77% 29.64 in 8.0 mi South 10.4 mph 24.2 mph N/A   Overcast
1:55 AM 59.0 °F 51.8 °F 77% 29.63 in 7.0 mi South 16.1 mph 24.2 mph N/A   Overcast
2:15 AM 59.0 °F 51.8 °F 77% 29.62 in 8.0 mi South 15.0 mph 24.2 mph N/A   Overcast
2:35 AM 59.0 °F 51.8 °F 77% 29.61 in 8.0 mi South 12.7 mph 25.3 mph N/A   Overcast
2:55 AM 60.8 °F 53.6 °F 77% 29.59 in 7.0 mi South 9.2 mph 17.3 mph N/A   Overcast
3:15 AM 60.8 °F 53.6 °F 77% 29.58 in 4.0 mi South 9.2 mph 18.4 mph N/A   Overcast
3:35 AM 60.8 °F 53.6 °F 77% 29.57 in 3.0 mi South 10.4 mph 19.6 mph N/A   Overcast
3:55 AM 60.8 °F 53.6 °F 77% 29.56 in 3.0 mi South 11.5 mph 18.4 mph N/A   Overcast
4:15 AM 60.8 °F 53.6 °F 77% 29.57 in 5.0 mi South 17.3 mph 26.5 mph 0.01 in   Overcast
4:35 AM 57.2 °F 51.8 °F 82% 29.59 in 8.0 mi WSW 17.3 mph 31.1 mph 0.11 in   Overcast
4:55 AM 57.2 °F 50.0 °F 77% 29.57 in 10.0 mi SSW 8.1 mph - 0.12 in   Overcast
5:15 AM 57.2 °F 48.2 °F 72% 29.57 in 10.0 mi SSW 11.5 mph - N/A   Overcast
5:35 AM 57.2 °F 48.2 °F 72% 29.56 in 10.0 mi SSW 6.9 mph - N/A   Mostly Cloudy
5:55 AM 55.4 °F 48.2 °F 77% 29.52 in 10.0 mi SSE 6.9 mph - N/A   Mostly Cloudy
6:15 AM 55.4 °F 48.2 °F 77% 29.55 in 10.0 mi SSW 6.9 mph - N/A   Mostly Cloudy
6:35 AM 55.4 °F 48.2 °F 77% 29.56 in 10.0 mi SSW 9.2 mph - N/A   Clear
6:55 AM 55.4 °F 48.2 °F 77% 29.56 in 10.0 mi SW 9.2 mph - N/A   Clear
7:15 AM 55.4 °F 46.4 °F 72% 29.56 in 10.0 mi SW 11.5 mph 18.4 mph N/A   Partly Cloudy
7:35 AM 57.2 °F 48.2 °F 72% 29.57 in 10.0 mi SW 13.8 mph 21.9 mph N/A   Clear
7:55 AM 57.2 °F 48.2 °F 72% 29.59 in 10.0 mi WSW 13.8 mph 19.6 mph N/A   Clear
8:15 AM 57.2 °F 46.4 °F 67% 29.59 in 10.0 mi WSW 13.8 mph 23.0 mph N/A   Clear
8:35 AM 57.2 °F 46.4 °F 67% 29.59 in 10.0 mi WSW 15.0 mph 25.3 mph N/A   Scattered Clouds
8:55 AM 57.2 °F 46.4 °F 67% 29.60 in 10.0 mi WSW 19.6 mph 25.3 mph N/A   Mostly Cloudy
9:15 AM 57.2 °F 46.4 °F 67% 29.61 in 10.0 mi WSW 21.9 mph 29.9 mph N/A   Overcast
9:35 AM 59.0 °F 44.6 °F 59% 29.62 in 10.0 mi West 16.1 mph 28.8 mph N/A   Overcast
9:55 AM 59.0 °F 44.6 °F 59% 29.62 in 10.0 mi West 17.3 mph 34.5 mph N/A   Overcast
10:15 AM 60.8 °F 39.2 °F 45% 29.62 in 10.0 mi West 20.7 mph 34.5 mph N/A   Scattered Clouds
10:35 AM 60.8 °F 39.2 °F 45% 29.64 in 10.0 mi West 23.0 mph 35.7 mph N/A   Clear
10:55 AM 60.8 °F 39.2 °F 45% 29.65 in 10.0 mi West 19.6 mph 34.5 mph N/A   Partly Cloudy
11:15 AM 60.8 °F 37.4 °F 42% 29.65 in 10.0 mi West 25.3 mph 36.8 mph N/A   Mostly Cloudy
11:35 AM 60.8 °F 37.4 °F 42% 29.65 in 10.0 mi West 20.7 mph 36.8 mph N/A   Mostly Cloudy
11:55 AM 60.8 °F 37.4 °F 42% 29.65 in 10.0 mi West 25.3 mph 40.3 mph N/A   Mostly Cloudy
12:15 PM 59.0 °F 37.4 °F 45% 29.66 in 10.0 mi West 20.7 mph 32.2 mph N/A   Mostly Cloudy
12:35 PM 60.8 °F 37.4 °F 42% 29.66 in 10.0 mi West 17.3 mph 29.9 mph N/A   Mostly Cloudy
12:55 PM 60.8 °F 37.4 °F 42% 29.67 in 10.0 mi West 24.2 mph 33.4 mph N/A   Mostly Cloudy
1:35 PM 59.0 °F 35.6 °F 42% 29.68 in 10.0 mi West 27.6 mph 40.3 mph N/A   Scattered Clouds
1:55 PM 60.8 °F 35.6 °F 39% 29.69 in 10.0 mi West 25.3 mph 36.8 mph N/A   Scattered Clouds
2:15 PM 59.0 °F 35.6 °F 42% 29.69 in 10.0 mi West 21.9 mph 34.5 mph N/A   Mostly Cloudy
2:35 PM 57.2 °F 35.6 °F 44% 29.70 in 10.0 mi West 25.3 mph 33.4 mph N/A   Overcast
2:55 PM 57.2 °F 35.6 °F 44% 29.71 in 10.0 mi West 13.8 mph 34.5 mph N/A   Mostly Cloudy
3:15 PM 57.2 °F 35.6 °F 44% 29.72 in 10.0 mi West 20.7 mph 29.9 mph N/A   Overcast
3:35 PM 57.2 °F 35.6 °F 44% 29.73 in 10.0 mi West 16.1 mph 27.6 mph N/A   Mostly Cloudy
3:55 PM 55.4 °F 33.8 °F 44% 29.75 in 10.0 mi West 13.8 mph 29.9 mph N/A   Scattered Clouds
4:15 PM 55.4 °F 33.8 °F 44% 29.76 in 10.0 mi West 16.1 mph 32.2 mph N/A   Mostly Cloudy
4:35 PM 55.4 °F 33.8 °F 44% 29.78 in 10.0 mi West 26.5 mph 38.0 mph N/A   Overcast
4:55 PM 55.4 °F 33.8 °F 44% 29.79 in 10.0 mi West 19.6 mph 28.8 mph N/A   Scattered Clouds
5:15 PM 55.4 °F 32.0 °F 41% 29.80 in 10.0 mi West 18.4 mph 29.9 mph N/A   Scattered Clouds
5:35 PM 55.4 °F 32.0 °F 41% 29.82 in 10.0 mi West 25.3 mph 35.7 mph N/A   Scattered Clouds
5:55 PM 53.6 °F 30.2 °F 41% 29.83 in 10.0 mi West 21.9 mph 35.7 mph N/A   Partly Cloudy
6:15 PM 53.6 °F 32.0 °F 44% 29.84 in 10.0 mi West 20.7 mph 33.4 mph N/A   Clear
6:35 PM 53.6 °F 30.2 °F 41% 29.85 in 10.0 mi West 16.1 mph 29.9 mph N/A   Clear
6:55 PM 53.6 °F 30.2 °F 41% 29.86 in 10.0 mi West 19.6 mph 27.6 mph N/A   Clear
7:15 PM 53.6 °F 30.2 °F 41% 29.87 in 10.0 mi West 17.3 mph 28.8 mph N/A   Clear
7:35 PM 53.6 °F 30.2 °F 41% 29.88 in 10.0 mi West 16.1 mph 29.9 mph N/A   Clear
7:55 PM 51.8 °F 30.2 °F 44% 29.89 in 10.0 mi West 20.7 mph 27.6 mph N/A   Clear
8:15 PM 51.8 °F 30.2 °F 44% 29.90 in 10.0 mi West 16.1 mph 20.7 mph N/A   Clear
8:35 PM 51.8 °F 30.2 °F 44% 29.91 in 10.0 mi West 15.0 mph 25.3 mph N/A   Clear
9:15 PM 51.8 °F 30.2 °F 44% 29.92 in 10.0 mi West 13.8 mph 23.0 mph N/A   Clear
9:35 PM 51.8 °F 30.2 °F 44% 29.93 in 10.0 mi West 18.4 mph 24.2 mph N/A   Clear
9:55 PM 51.8 °F 30.2 °F 44% 29.93 in 10.0 mi West 16.1 mph 20.7 mph N/A   Clear
10:15 PM 51.8 °F 30.2 °F 44% 29.94 in 10.0 mi West 12.7 mph 17.3 mph N/A   Clear
10:35 PM 50.0 °F 30.2 °F 47% 29.94 in 10.0 mi West 13.8 mph - N/A   Clear
10:55 PM 50.0 °F 30.2 °F 47% 29.95 in 10.0 mi West 11.5 mph 20.7 mph N/A   Clear
11:15 PM 50.0 °F 30.2 °F 47% 29.96 in 10.0 mi West 11.5 mph 20.7 mph N/A   Clear
11:35 PM 50.0 °F 30.2 °F 47% 29.97 in 10.0 mi West 11.5 mph 17.3 mph N/A   Clear
11:55 PM 48.2 °F 30.2 °F 50% 29.98 in 10.0 mi West 15.0 mph - N/A   Clear